Regional Weather Roundup
Issued by NWS

Home | Current Version | Previous Version | Text Only | Print | Product List | Glossary On
Versions: 1 2 3 4 5 6 7 8 9 10 11 12 13 14 15 16 17 18 19 20 21 22 23 24 25 26 27 28 29 30 31 32 33 34 35 36 37 38 39 40 41 42 43 44 45 46 47 48 49 50
425
ASUS44 KJAN 261310
RWRMS

MISSISSIPPI HOURLY WEATHER ROUNDUP
NATIONAL WEATHER SERVICE JACKSON MS
800 AM CDT WED APR 26 2017

NOTE: "FAIR: INDICATES FEW OR NO CLOUDS BELOW 12,000 FEET WITH NO
SIGNIFICANT WEATHER AND/OR OBSTRUCTIONS TO VISIBILITY.

MSZ001>002-007>008-010>013-018>021-025>028-034>036-261400-
NORTHWEST MISSISSIPPI

CITY           SKY/WX    TMP DP  RH WIND       PRES   REMARKS
CLARKSDALE     CLOUDY    68  64  88 SE13      29.68S
CLEVELAND      CLOUDY    66  65  96 SE12      29.67R
GREENWOOD      CLOUDY    65  60  84 SE9       29.71R
GREENVILLE     CLOUDY    66  60  81 SE13      29.66R
OLIVE BRANCH   MOSUNNY  N/A N/A N/A S9        29.66F
OXFORD         PTSUNNY   63  57  82 SE9       29.74S
TUNICA         MOSUNNY   64  59  82 S12       29.67S
WINONA         CLOUDY    61  60  94 SE5       29.73R
$$

MSZ003>006-009-014>017-022>024-029>033-037>039-261400-
NORTHEAST MISSISSIPPI

CITY           SKY/WX    TMP DP  RH WIND       PRES   REMARKS
COLUMBUS AFB   MOSUNNY   63  60  90 S8        29.76R
CORINTH        FAIR      64  57  77 S13       29.73F
STARKVILLE     FAIR      61  59  94 S7        29.78R
TUPELO         PTSUNNY   63  57  81 SE7       29.75R
$$

MSZ040-058-261400-
CENTRAL MISSISSIPPI

CITY           SKY/WX    TMP DP  RH WIND       PRES   REMARKS
JACKSON INTL   PTSUNNY   65  60  84 SE12      29.72R
JACKSON HAWKNS CLOUDY    65  60  84 S9        29.71R
MADISON        CLOUDY    63  59  88 S5        29.71R
MERIDIAN KEY   MOSUNNY   64  60  87 CALM      29.78R
MERIDIAN NAS   PTSUNNY   63  56  78 SE6       29.79R
RAYMOND        PTSUNNY   66  61  82 SE10G17   29.70R HAZE
VICKSBURG VKS  CLOUDY    68  63  83 S13       29.64S
$$

MSZ059>079-261400-
SOUTH MISSISSIPPI

CITY           SKY/WX    TMP DP  RH WIND       PRES   REMARKS
HATTIESBURG    CLOUDY    61  57  87 E5        29.78R
LAUREL         PTSUNNY   63  62  96 S3        29.78R
MCCOMB         CLOUDY    65  61  87 SE9       29.72R
NATCHEZ          N/A     68  63  84 S9        29.67R
PINE BELT      CLOUDY    61  57  88 S6        29.78R
$$

MSZ080>082-261400-
COASTAL MISSISSIPPI

CITY           SKY/WX    TMP DP  RH WIND       PRES   REMARKS
BAY ST LOUIS   CLOUDY    68  61  77 S7        29.76R
BILOXI         PTSUNNY   72  61  68 S17       29.76R
PASCAGOULA     MOSUNNY   72  60  66 S8        29.77R
GULFPORT       PTSUNNY   72  62  71 S9G17     29.76R
$$

LAZ007>009-015>016-023>026-261400-
NORTHEAST LOUISIANA

CITY           SKY/WX    TMP DP  RH WIND       PRES   REMARKS
BASTROP        CLOUDY    68  67  98 CALM      29.63R
TALLULAH/VBURG CLOUDY    69  62  78 S15       29.67R
VIDALIA        CLOUDY    70  64  81 SE15G24   29.65R
$$




USA.gov is the U.S. government's official web portal to all federal, state and local government web resources and services.